• In Hungary
  • List of Countries
  • For 7 days
  • Water Temperature
  • Satellite Maps
  • Weather Map
  • News
  • Weather Widgets
  • user-avatar
    Login

    Hourly Weather Schorndorf

    Today, 15 August, Wednesday

    Time Temperature Precipitation Wind Pressure Humidity
    00:00 +16°C° 0 mm 1 mps 740 mmHg 87%
    01:00 +16°C° 0 mm 1 mps 740 mmHg 90%
    02:00 +16°C° 0 mm 1 mps 740 mmHg 91%
    03:00 +16°C° 0 mm 1 mps 740 mmHg 92%
    04:00 +16°C° 0 mm 1 mps 740 mmHg 93%
    05:00 +16°C° 0 mm 1 mps 740 mmHg 91%
    06:00 +18°C° 0 mm 1 mps 740 mmHg 88%
    07:00 +19°C° 0 mm 1 mps 741 mmHg 85%
    08:00 +21°C° 0.1 mm 1 mps 741 mmHg 78%
    09:00 +22°C° 0.1 mm 1 mps 741 mmHg 71%
    10:00 +24°C° 0.1 mm 2 mps 741 mmHg 64%
    11:00 +25°C° 0.1 mm 2 mps 741 mmHg 60%
    12:00 +26°C° 0.1 mm 2 mps 741 mmHg 56%
    13:00 +27°C° 0.1 mm 2 mps 740 mmHg 51%
    14:00 +27°C° 0 mm 2 mps 740 mmHg 52%
    15:00 +27°C° 0 mm 2 mps 740 mmHg 52%
    16:00 +27°C° 0 mm 2 mps 740 mmHg 52%
    17:00 +25°C° 0 mm 2 mps 740 mmHg 58%
    18:00 +24°C° 0 mm 1 mps 740 mmHg 63%
    19:00 +23°C° 0 mm 1 mps 740 mmHg 68%
    20:00 +22°C° 0 mm 1 mps 740 mmHg 72%
    21:00 +18°C° 0 mm 0 mps 740 mmHg 76%
    22:00 +17°C° 0 mm 0 mps 740 mmHg 80%
    23:00 +17°C° 0 mm 0 mps 740 mmHg 81%

    Tomorrow, 16 August, Thursday

    Time Temperature Precipitation Wind Pressure Humidity
    00:00 +16°C° 0 mm 0 mps 740 mmHg 82%
    01:00 +18°C° 0 mm 1 mps 740 mmHg 83%
    02:00 +18°C° 0 mm 1 mps 740 mmHg 84%
    03:00 +16°C° 0 mm 1 mps 739 mmHg 85%
    04:00 +16°C° 0 mm 1 mps 739 mmHg 86%
    05:00 +18°C° 0 mm 1 mps 739 mmHg 84%
    06:00 +19°C° 0 mm 1 mps 739 mmHg 81%
    07:00 +20°C° 0 mm 1 mps 739 mmHg 79%
    08:00 +22°C° 0 mm 1 mps 739 mmHg 72%
    09:00 +24°C° 0 mm 1 mps 739 mmHg 65%
    10:00 +26°C° 0 mm 1 mps 739 mmHg 58%
    11:00 +27°C° 0 mm 1 mps 738 mmHg 54%
    12:00 +29°C° 0 mm 1 mps 738 mmHg 51%
    13:00 +30°C° 0 mm 1 mps 738 mmHg 47%
    14:00 +30°C° 0 mm 1 mps 737 mmHg 47%
    15:00 +30°C° 0 mm 1 mps 737 mmHg 46%
    16:00 +30°C° 0 mm 1 mps 737 mmHg 46%
    17:00 +28°C° 0 mm 1 mps 737 mmHg 52%
    18:00 +27°C° 0 mm 1 mps 736 mmHg 59%
    19:00 +25°C° 0 mm 1 mps 736 mmHg 66%
    20:00 +24°C° 0 mm 1 mps 736 mmHg 70%
    21:00 +23°C° 0 mm 1 mps 736 mmHg 74%
    22:00 +21°C° 0 mm 1 mps 737 mmHg 79%
    23:00 +21°C° 0 mm 1 mps 736 mmHg 80%

    Day after tomorrow, 17 August, Friday

    Time Temperature Precipitation Wind Pressure Humidity
    00:00 +21°C° 0 mm 1 mps 736 mmHg 82%
    01:00 +20°C° 0 mm 1 mps 736 mmHg 84%
    02:00 +20°C° 0 mm 1 mps 736 mmHg 85%
    03:00 +19°C° 0 mm 1 mps 736 mmHg 86%
    04:00 +19°C° 0 mm 1 mps 736 mmHg 87%
    05:00 +20°C° 0 mm 1 mps 736 mmHg 85%
    06:00 +21°C° 0 mm 1 mps 736 mmHg 82%
    07:00 +21°C° 0 mm 1 mps 736 mmHg 80%
    08:00 +23°C° 0.1 mm 1 mps 737 mmHg 72%
    09:00 +26°C° 0.1 mm 1 mps 737 mmHg 65%
    10:00 +28°C° 0.1 mm 1 mps 737 mmHg 57%
    11:00 +29°C° 0.3 mm 2 mps 737 mmHg 54%
    12:00 +29°C° 0.3 mm 2 mps 737 mmHg 51%
    13:00 +30°C° 0.3 mm 2 mps 737 mmHg 48%
    14:00 +30°C° 0.1 mm 2 mps 737 mmHg 49%
    15:00 +30°C° 0.1 mm 2 mps 737 mmHg 50%
    16:00 +29°C° 0.1 mm 3 mps 737 mmHg 51%
    17:00 +28°C° 0.5 mm 3 mps 737 mmHg 59%
    18:00 +26°C° 0.5 mm 3 mps 738 mmHg 67%
    19:00 +24°C° 0.5 mm 3 mps 738 mmHg 75%
    20:00 +23°C° 1.3 mm 2 mps 738 mmHg 80%
    21:00 +21°C° 1.3 mm 2 mps 739 mmHg 86%
    22:00 +20°C° 1.3 mm 2 mps 739 mmHg 91%
    23:00 +19°C° 0.5 mm 2 mps 739 mmHg 92%

    18 August, Saturday

    Time Temperature Precipitation Wind Pressure Humidity
    00:00 +19°C° 0.5 mm 2 mps 740 mmHg 93%
    01:00 +18°C° 0.5 mm 2 mps 740 mmHg 95%
    02:00 +18°C° 0 mm 2 mps 740 mmHg 95%
    03:00 +18°C° 0 mm 2 mps 740 mmHg 95%
    04:00 +18°C° 0 mm 2 mps 740 mmHg 95%
    05:00 +18°C° 0 mm 2 mps 740 mmHg 94%
    06:00 +18°C° 0 mm 2 mps 741 mmHg 92%
    07:00 +18°C° 0 mm 2 mps 741 mmHg 91%
    08:00 +19°C° 0 mm 2 mps 741 mmHg 86%
    09:00 +20°C° 0 mm 2 mps 742 mmHg 81%
    10:00 +21°C° 0 mm 2 mps 742 mmHg 77%
    11:00 +23°C° 0 mm 2 mps 742 mmHg 71%
    12:00 +24°C° 0 mm 2 mps 742 mmHg 66%
    13:00 +25°C° 0 mm 2 mps 741 mmHg 61%
    14:00 +26°C° 0 mm 2 mps 741 mmHg 59%
    15:00 +26°C° 0 mm 2 mps 741 mmHg 56%
    16:00 +27°C° 0 mm 2 mps 741 mmHg 54%
    17:00 +26°C° 0.1 mm 2 mps 741 mmHg 58%
    18:00 +24°C° 0.1 mm 1 mps 741 mmHg 62%
    19:00 +23°C° 0.1 mm 1 mps 741 mmHg 66%
    20:00 +22°C° 0 mm 1 mps 742 mmHg 68%
    21:00 +21°C° 0 mm 1 mps 742 mmHg 70%
    22:00 +18°C° 0 mm 0 mps 742 mmHg 72%
    23:00 +17°C° 0 mm 0 mps 742 mmHg 72%

    19 August, Sunday

    Time Temperature Precipitation Wind Pressure Humidity
    00:00 +17°C° 0 mm 0 mps 742 mmHg 72%
    01:00 +16°C° 0 mm 0 mps 742 mmHg 73%
    02:00 +16°C° 0 mm 0 mps 742 mmHg 73%
    03:00 +16°C° 0 mm 0 mps 742 mmHg 74%
    04:00 +15°C° 0 mm 0 mps 742 mmHg 75%
    05:00 +16°C° 0 mm 0 mps 742 mmHg 74%
    06:00 +17°C° 0 mm 0 mps 742 mmHg 73%
    07:00 +18°C° 0 mm 0 mps 742 mmHg 72%
    08:00 +20°C° 0 mm 0 mps 743 mmHg 67%
    09:00 +24°C° 0 mm 1 mps 743 mmHg 63%
    10:00 +26°C° 0 mm 1 mps 743 mmHg 58%
    11:00 +27°C° 0 mm 1 mps 743 mmHg 54%
    12:00 +28°C° 0 mm 2 mps 742 mmHg 51%
    13:00 +29°C° 0 mm 2 mps 742 mmHg 48%
    14:00 +29°C° 0 mm 2 mps 742 mmHg 48%
    15:00 +29°C° 0 mm 2 mps 742 mmHg 48%
    16:00 +29°C° 0 mm 2 mps 741 mmHg 48%
    17:00 +27°C° 0 mm 2 mps 741 mmHg 53%
    18:00 +26°C° 0 mm 1 mps 741 mmHg 58%
    19:00 +24°C° 0 mm 1 mps 741 mmHg 63%
    20:00 +23°C° 0 mm 1 mps 741 mmHg 65%
    21:00 +22°C° 0 mm 1 mps 742 mmHg 67%
    22:00 +19°C° 0 mm 0 mps 742 mmHg 69%
    23:00 +18°C° 0 mm 0 mps 742 mmHg 70%

    20 August, Monday

    Time Temperature Precipitation Wind Pressure Humidity
    00:00 +18°C° 0 mm 0 mps 742 mmHg 70%
    01:00 +17°C° 0 mm 0 mps 742 mmHg 71%
    02:00 +17°C° 0 mm 0 mps 741 mmHg 72%
    03:00 +17°C° 0 mm 0 mps 741 mmHg 73%
    04:00 +16°C° 0 mm 0 mps 741 mmHg 75%
    05:00 +17°C° 0 mm 0 mps 741 mmHg 73%
    06:00 +18°C° 0 mm 0 mps 742 mmHg 72%
    07:00 +19°C° 0 mm 0 mps 742 mmHg 70%
    08:00 +21°C° 0 mm 0 mps 742 mmHg 63%
    09:00 +25°C° 0 mm 1 mps 742 mmHg 57%
    10:00 +27°C° 0 mm 1 mps 742 mmHg 50%
    11:00 +28°C° 0 mm 1 mps 742 mmHg 47%
    12:00 +29°C° 0 mm 1 mps 742 mmHg 44%
    13:00 +30°C° 0 mm 1 mps 741 mmHg 41%
    14:00 +30°C° 0 mm 1 mps 741 mmHg 41%
    15:00 +30°C° 0 mm 2 mps 741 mmHg 40%
    16:00 +30°C° 0 mm 2 mps 741 mmHg 40%
    17:00 +28°C° 0 mm 1 mps 741 mmHg 46%
    18:00 +27°C° 0 mm 1 mps 741 mmHg 52%
    19:00 +25°C° 0 mm 1 mps 741 mmHg 58%
    20:00 +24°C° 0 mm 1 mps 741 mmHg 60%
    21:00 +21°C° 0 mm 0 mps 741 mmHg 62%
    22:00 +19°C° 0 mm 0 mps 741 mmHg 64%
    23:00 +19°C° 0 mm 0 mps 741 mmHg 67%
    Show more